Location: Newark
(25.1500°N, 87.0200°E)
Time: 18:07:33
(UTC+00:00)

LightSail 2 - Visible Passes

Search period start: 14 December 2019 00:00
Search period end: 24 December 2019 00:00
Orbit: 696 x 730 km, 24.0° (Epoch: 13 December)

Date Brightness Start Highest point End Pass type
(mag) Time Alt. Az. Time Alt. Az. Time Alt. Az.
14 Dec 7.7 12:32:46 10° WSW 12:35:49 16° SSW 12:38:52 10° SSE visible
21 Dec 7.9 23:33:06 10° S 23:35:00 12° SSE 23:36:53 10° SE visible
23 Dec 7.1 00:17:46 10° SW 00:22:00 27° SSE 00:26:15 10° ESE visible
23 Dec 7.4 23:20:16 10° SSW 23:23:55 20° SSE 23:27:36 10° ESE visible
